{"data":{"norad_id":43001,"intl_designator":"2017-069A","name":"BEIDOU-3 M1 (C19)","alt_names":[],"object_type":"PAYLOAD","status":"ACTIVE","operator":null,"country":"PRC","launch_date":"2017-11-05","launch_site_code":"XICLF","launch_vehicle":null,"mission":null,"orbit_class":"UNKNOWN","rcs_meters":null,"size_class":null,"mass_kg":null,"dimensions":null,"purposes":["nav"],"wikipedia_slug":null,"has_3d_model":false,"image_url":null,"decayed_at":null,"tle_current":{"epoch":"2026-05-23T23:16:47.866944Z","epoch_age_seconds":168062,"freshness":"FRESH","line1":"1 43001U 17069A   26143.96999846 -.00000064  00000+0  00000+0 0  9996","line2":"2 43001  56.6723  63.8816 0011366 323.2032  36.7137  1.86231088 58156","mean_motion":1.86231088,"eccentricity":0.0011366,"inclination_deg":56.6723,"raan_deg":63.8816,"arg_perigee_deg":323.2032,"mean_anomaly_deg":36.7137,"bstar":0,"rev_number":5815,"period_min":773.23287720899,"perigee_km":21496.324608924,"apogee_km":21559.760936784,"semimajor_km":27906.179772854,"source":"CELESTRAK","updated_at":"2026-05-25T13:38:24.216642Z"}}}